Weather in Makopse

Russia / Krasnodar Krai     43°59′45″N   39°12′38″E
temp.,
°C
wind,
m/s
gust,
m/s
humid.,
%
clouds,
%
prec.,
mm/h
press.,
hPa
HPBL,
m
16 may, sun
sun1600:00+16nne11870 0.0 101111
03:00+17n228978 0.0 101016
06:00+17ne2291100 0.0 100727
09:00+20w0180100 0.0 1006156
12:00+21s1173100 0.0 1005371
15:00+21ssw127829 0.1 1004205
18:00+22nne11800 0.0 100114
21:00+19sw56880 0.0 100479
17 may, mon
mon1700:00+17ne239460 0.0 100462
03:00+16s229342 0.0 100520
06:00+15se349365 0.0 1008158
09:00+18s237773 0.0 1008231
12:00+17sw3480100 0.0 1010405
15:00+16w328554 0.0 1009303
18:00+16sse238376 0.0 1011193
21:00+15ese239282 0.0 101395
18 may, tue
tue1800:00+15se2490100 0.1 1012100
03:00+15ese129183 0.1 101276
06:00+15ese238972 0.0 1012133
09:00+17s458314 0.0 1013407
12:00+17s678311 0.1 1013478
15:00+17s578143 0.2 1012404
18:00+16s238594 0.0 1012146
21:00+16e2288100 0.0 101317
19 may, wed
wed1900:00+16sw3389100 0.3 101453
03:00+14ssw3499100 8.1 1014296
06:00+14ssw3493100 8.3 1015172
09:00+15s45909 9.4 1017382
12:00+17s68740 0.1 1018719
15:00+17ssw46720 0.1 1018548
18:00+16sw11730 0.0 1018166
21:00+15ne22750 0.0 101725
20 may, thu
thu2000:00+15ne336416 0.0 101634
03:00+15ne44615 0.0 101544
06:00+15ne44610 0.0 101355
09:00+20nne33495 0.0 1011130
12:00+23w11460 0.0 1009343
15:00+25ne12412 0.0 1007396
18:00+25n22524 0.0 100520
21:00+21ne54581 0.0 100525